Tracking 27420 objects as of 11-Jun-2023
HD Live streaming from Space Station
objects crossing your sky now

STARLINK-6055

Track STARLINK-6055 now!
10-day predictions
STARLINK-6055 is classified as:


NORAD ID: 56467
Int'l Code: 2023-064V
Perigee: 364.1 km
Apogee: 368.4 km
Inclination: 70.0 °
Period: 91.7 minutes
Semi major axis: 6737 km
RCS: Unknown
Launch date: May 10, 2023
Source: United States (US)
Launch site: AIR FORCE WESTERN TEST RANGE (AFWTR)
Your satellite tracking list
Your tracking list is empty




NASA's NSSDC Master Catalog

Two Line Element Set (TLE):
1 56467U 23064V   23161.49049583  .00000875  00000-0  90415-5 0  9992
2 56467  69.9970 158.8033 0003232 264.5851  95.4976 15.69929070  5204
Source of the keplerian elements: AFSPC